Hagerstown, MD

7:25 AM EDT on October 14, 2019 (GMT -0400)
Hagerstown Regional-Henson

Weather History for KHGR - August, 2019

Change the Weather History Date:

Friday, August 23, 2019

  Actual Average Record
Temperature  
Mean Temperature 67 °F 73 °F  
Max Temperature 73 °F 82 °F 89 °F (1996)
Min Temperature 61 °F 63 °F 54 °F (2011)
Degree Days  
Heating Degree Days 0 0  
Month to date heating degree days 0 0  
Since 1 June heating degree days 5 18  
Since 1 July heating degree days 0 0  
Cooling Degree Days 2 8  
Month to date cooling degree days 294 206  
Year to date cooling degree days 1161 812  
Since 1 June cooling degree days 979 736  
Growing Degree Days 17 (Base 50)    
Moisture  
Dew Point 62 °F    
Average Humidity 82    
Maximum Humidity 97    
Minimum Humidity 66    
Precipitation  
Precipitation 0.68 in 0.11 in 1.22 in (2014)
Month to date precipitation 2.28 2.32  
Year to date precipitation 28.25 25.81  
Sea Level Pressure  
Sea Level Pressure 30.06 in    
Wind  
Wind Speed 4 mph (NNW)    
Max Wind Speed 14 mph    
Max Gust Speed 19 mph    
Visibility 7 miles    
Events Rain    
T = Trace of Precipitation, MM = Missing Value Source: NWS Daily Summary

Daily Weather History Graph

Daily Weather History Graph

Search for Another Location

Airport or City:

Astronomy

Aug. 23, 2019 Rise Set
Actual Time 6:30 AM EDT 7:56 PM EDT
Civil Twilight 6:02 AM EDT 8:24 PM EDT
Nautical Twilight 5:28 AM EDT 8:58 PM EDT
Astronomical Twilight 4:52 AM EDT 9:33 PM EDT
Moon No Moon Rise 2:04 PM EDT (8/23)
Length of Visible Light 14h 22m
Length of Day
13h 25m
Waning Gibbous, 50% of the Moon is Illuminated
Aug 23
Waning Gibbous
Aug 30
New
Sep 5
First Quarter
Sep 14
Full
Sep 21
Last Quarter

Hourly Weather History & Observations

Time (EDT) Temp. Dew Point Humidity Pressure Visibility Wind Dir Wind Speed Gust Speed Precip Events Conditions
12:53 AM 73.0 °F 69.1 °F 87% 29.98 in 10.0 mi North 4.6 mph - N/A   Partly Cloudy
1:53 AM 72.0 °F 66.9 °F 84% 29.97 in 10.0 mi North 5.8 mph - N/A   Clear
2:53 AM 71.1 °F 66.9 °F 87% 29.97 in 10.0 mi NNW 6.9 mph - N/A   Partly Cloudy
3:53 AM 71.1 °F 66.9 °F 87% 29.98 in 10.0 mi NNW 6.9 mph - 0.00 in   Overcast
4:53 AM 70.0 °F 68.0 °F 93% 29.99 in 8.0 mi NNW 5.8 mph - 0.04 in Rain Light Rain
5:53 AM 70.0 °F 66.9 °F 90% 30.01 in 10.0 mi NNW 5.8 mph - 0.01 in Rain Light Rain
6:02 AM 70.0 °F 66.9 °F 90% 30.00 in 10.0 mi NNW 6.9 mph - 0.00 in Rain Light Rain
6:14 AM 69.1 °F 66.9 °F 93% 30.00 in 10.0 mi North 9.2 mph - 0.00 in   Overcast
6:34 AM 69.1 °F 66.0 °F 90% 30.01 in 10.0 mi North 9.2 mph - 0.00 in   Overcast
6:53 AM 69.1 °F 66.0 °F 90% 30.03 in 10.0 mi North 8.1 mph - 0.00 in Rain Light Rain
7:18 AM 68.0 °F 64.9 °F 90% 30.03 in 10.0 mi North 9.2 mph - 0.00 in   Overcast
7:31 AM 68.0 °F 64.0 °F 87% 30.03 in 10.0 mi North 8.1 mph - 0.00 in   Overcast
7:53 AM 66.9 °F 64.0 °F 90% 30.06 in 10.0 mi North 8.1 mph - 0.00 in   Overcast
8:16 AM 66.9 °F 64.0 °F 90% 30.04 in 7.0 mi North 9.2 mph - 0.00 in Rain Light Rain
8:39 AM 66.9 °F 64.0 °F 90% 30.05 in 2.5 mi NNE 8.1 mph - 0.01 in Rain Light Rain
8:53 AM 66.0 °F 62.1 °F 87% 30.06 in 2.5 mi NNE 8.1 mph - 0.04 in Rain Light Rain
9:00 AM 66.0 °F 61.0 °F 84% 30.05 in 2.5 mi NNE 10.4 mph - 0.00 in Rain Light Rain
9:53 AM 64.0 °F 57.9 °F 80% 30.09 in 5.0 mi North 8.1 mph - 0.02 in Rain Light Rain
10:44 AM 63.0 °F 59.0 °F 87% 30.09 in 5.0 mi NNW 8.1 mph - 0.02 in Rain Light Rain
10:46 AM 63.0 °F 59.0 °F 87% 30.09 in 2.0 mi NNW 6.9 mph - 0.03 in Rain Light Rain
10:53 AM 62.1 °F 59.0 °F 90% 30.11 in 2.0 mi NNW 9.2 mph - 0.05 in Rain Rain
11:53 AM 61.0 °F 59.0 °F 93% 30.11 in 2.0 mi NW 4.6 mph - 0.31 in Rain Heavy Rain
12:00 PM 61.0 °F 59.0 °F 93% 30.09 in 1.8 mi NW 4.6 mph - 0.02 in Rain Rain
12:29 PM 62.1 °F 60.1 °F 93% 30.09 in 1.8 mi WNW 5.8 mph - 0.11 in Rain Rain
12:41 PM 62.1 °F 59.0 °F 90% 30.09 in 3.0 mi WNW 3.5 mph - 0.13 in Rain Light Rain
12:53 PM 62.1 °F 59.0 °F 90% 30.09 in 2.5 mi Calm Calm - 0.15 in Rain Light Rain
1:02 PM 62.1 °F 59.0 °F 90% 30.08 in 2.5 mi NE 3.5 mph - 0.02 in Rain Light Rain
1:40 PM 63.0 °F 59.0 °F 87% 30.08 in 4.0 mi Calm Calm - 0.05 in Rain Light Rain
1:53 PM 63.0 °F 59.0 °F 87% 30.10 in 4.0 mi Calm Calm - 0.05 in Rain Light Rain
2:53 PM 64.9 °F 60.1 °F 84% 30.09 in 10.0 mi North 3.5 mph - 0.01 in   Overcast
3:20 PM 64.9 °F 61.0 °F 87% 30.08 in 10.0 mi WNW 8.1 mph - N/A   Overcast
3:53 PM 66.0 °F 60.1 °F 81% 30.08 in 10.0 mi West 3.5 mph - N/A   Mostly Cloudy
4:17 PM 66.0 °F 61.0 °F 84% 30.06 in 10.0 mi WNW 4.6 mph - N/A   Mostly Cloudy
4:53 PM 68.0 °F 61.0 °F 78% 30.08 in 10.0 mi WNW 4.6 mph - N/A   Clear
5:53 PM 71.1 °F 60.1 °F 68% 30.08 in 10.0 mi NNE 4.6 mph - N/A   Clear
6:53 PM 71.1 °F 59.0 °F 66% 30.09 in 10.0 mi Calm Calm - N/A   Clear
7:53 PM 69.1 °F 60.1 °F 73% 30.09 in 10.0 mi Calm Calm - N/A   Clear
8:53 PM 66.9 °F 60.1 °F 79% 30.10 in 10.0 mi Calm Calm - N/A   Partly Cloudy
9:53 PM 66.0 °F 61.0 °F 84% 30.13 in 10.0 mi Calm Calm - N/A   Partly Cloudy
10:53 PM 64.0 °F 61.0 °F 90% 30.15 in 10.0 mi East 3.5 mph - N/A   Clear
11:53 PM 63.0 °F 61.0 °F 93% 30.17 in 6.0 mi East 4.6 mph - N/A   Clear